< < Back
Terminal Aerodrome Forecast


Current Version              Previous Versions:   1  2  3  4  5  6  7  8  9  

Terminal Aerodrome Forecast

899
FTUS42 KJAX 060253 AAB
TAFSSI
TAF AMD
KSSI 060253Z 0603/0624 27003KT P6SM VCSH SCT010 BKN050
     FM060400 32011G20KT P6SM VCSH SCT010 BKN015 OVC050
     FM061100 02011G18KT P6SM VCSH SCT006 BKN009 OVC025
     FM061300 03013G20KT 5SM -RA BR BKN006 OVC020=

Latest METAR

788
SAUS70 KWBC 061100 RRA
MTRSSI
METAR KSSI 061053Z AUTO 05014KT 10SM BKN010 OVC013 08/06 A3027 RMK AO2
SLP250 T00780061


USA.gov is the U.S. government's official web portal to all federal, state and local government web resources and services.